Overview Statistics Trail Chart Weather Telemetry Raw packets
 

This is the latest recevied weather packets stored in our database for station/object NR0A-4. If no packets are shown the sender has not sent any weather packets the latest 10 day(s).

<< 50 51 52 53 54 55 56 >>
Time Temp. Humidity Pressure Rain* Wind** Luminosity Snow
1788320404 22.22° C 75% 1011.6 hPa 0 mm - 0 W/m² -
1788320105 22.22° C 75% 1011.6 hPa 0 mm - 0 W/m² -
1788319804 22.22° C 75% 1011.7 hPa 0 mm - 0 W/m² -
1788319504 22.78° C 75% 1011.8 hPa 0 mm - 0 W/m² -
1788319204 22.78° C 75% 1012.1 hPa 0 mm - 0 W/m² -
1788318904 22.78° C 75% 1012 hPa 0 mm - 0 W/m² -
1788318604 22.78° C 75% 1012.1 hPa 0 mm - 0 W/m² -
1788318305 22.78° C 74% 1012.3 hPa 0 mm - 0 W/m² -
1788318004 22.78° C 74% 1012.4 hPa 0 mm - 0 W/m² -
1788317705 23.33° C 74% 1012.4 hPa 0 mm - 0 W/m² -
1788317404 23.33° C 73% 1012.5 hPa 0 mm - 0 W/m² -
1788317104 23.33° C 73% 1012.4 hPa 0 mm - 0 W/m² -
1788316804 23.89° C 72% 1012.5 hPa 0 mm - 0 W/m² -
1788316504 23.89° C 71% 1012.6 hPa 0 mm - 0 W/m² -
1788316204 24.44° C 70% 1012.5 hPa 0 mm - 0 W/m² -
1788315904 25° C 69% 1012.7 hPa 0 mm - 0 W/m² -
1788315604 26.11° C 69% 1012.6 hPa 0 mm - 0 W/m² -
1788315304 26.67° C 77% 1012.5 hPa 0 mm - 0 W/m² -
1788315003 27.22° C 77% 1011.9 hPa 0 mm - 0 W/m² -
1788314704 27.22° C 77% 1011.7 hPa 0 mm - 0 W/m² -
1788314404 27.22° C 76% 1011.3 hPa 0 mm - 0 W/m² -
1788314104 27.22° C 76% 1011.1 hPa 0 mm - 0 W/m² -
1788313804 27.22° C 75% 1011.2 hPa 0 mm - 0 W/m² -
1788313504 27.78° C 75% 1011.1 hPa 0 mm - 0 W/m² -
1788313204 27.78° C 74% 1010.9 hPa 0 mm - 0 W/m² -

* Rain latest hour (hover to see other rain measurements)
** Current wind speed in m/s (hover to see current wind gust speed)